This is the latest recevied weather packets stored in our database for station/object ac2ev. If no packets are shown the sender has not sent any weather packets the latest 10 day(s).
| Time | Temp. | Humidity | Pressure | Rain* | Wind** | Luminosity | Snow |
|---|---|---|---|---|---|---|---|
| 1788188262 | 20° C | 89% | 1018.1 hPa | 2.54 mm | - | - | - |
| 1788187962 | 19.44° C | 89% | 1018 hPa | 2.29 mm | - | - | - |
| 1788187662 | 19.44° C | 89% | 1017.8 hPa | 2.03 mm | - | - | - |
| 1788187360 | 19.44° C | 90% | 1017.9 hPa | 2.03 mm | - | - | - |
| 1788187060 | 19.44° C | 90% | 1017.8 hPa | 2.03 mm | - | - | - |
| 1788186756 | 19.44° C | 90% | 1017.8 hPa | 1.78 mm | - | - | - |
| 1788186454 | 19.44° C | 89% | 1018.1 hPa | 2.03 mm | - | - | - |
| 1788186151 | 19.44° C | 89% | 1018.1 hPa | 2.29 mm | - | - | - |
| 1788185851 | 19.44° C | 89% | 1018 hPa | 2.54 mm | - | - | - |
| 1788185547 | 19.44° C | 90% | 1018 hPa | 2.54 mm | - | - | - |
| 1788185242 | 19.44° C | 90% | 1017.9 hPa | 3.05 mm | - | - | - |
| 1788184934 | 19.44° C | 90% | 1017.6 hPa | 3.05 mm | - | - | - |
| 1788184630 | 19.44° C | 90% | 1017.5 hPa | 3.3 mm | - | - | - |
| 1788184329 | 19.44° C | 90% | 1017.5 hPa | 4.06 mm | - | - | - |
| 1788184155 | 19.44° C | 90% | 1017.4 hPa | 5.33 mm | - | - | - |
| 1788183847 | 19.44° C | 90% | 1017.5 hPa | 5.84 mm | - | - | - |
| 1788183556 | 19.44° C | 90% | 1017.7 hPa | 6.35 mm | - | - | - |
| 1788183127 | 19.44° C | 90% | 1017.6 hPa | 6.86 mm | - | - | - |
| 1788182825 | 19.44° C | 90% | 1017.6 hPa | 6.86 mm | - | - | - |
| 1788182525 | 19.44° C | 90% | 1017.6 hPa | 6.6 mm | - | - | - |
| 1788182225 | 19.44° C | 90% | 1017.6 hPa | 6.35 mm | - | - | - |
| 1788181926 | 19.44° C | 90% | 1017.7 hPa | 5.84 mm | - | - | - |
| 1788181626 | 19.44° C | 90% | 1017.9 hPa | 5.33 mm | - | - | - |
| 1788181325 | 19.44° C | 90% | 1017.9 hPa | 5.08 mm | - | - | - |
| 1788181025 | 19.44° C | 90% | 1017.9 hPa | 4.32 mm | - | - | - |
* Rain latest hour (hover to see other rain measurements)
** Current wind speed in m/s (hover to see current wind gust speed)